Simultaneous Nadir Overpasses (SNOs) Predictions

Prediction of SNOs between GOES-15 and TERRA Satellite Orbit:

Table of predicted SNOs for the next 14.0 days since TLE Epoch: 9/6/2014
Index Date Time (GOES-15) GOES-15 Lat,Lon TERRA Lat,Lon Distance(km) Time Diff (sec)
1 09/07/2014 07:13:01 0.32,-134.33 1.14,-130.50 435.07 80
2 09/07/2014 19:31:37 -0.34,-134.37 -0.08,-135.67 146.60 80
3 09/09/2014 19:22:05 -0.34,-134.23 -0.69,-132.71 174.19 80
4 09/10/2014 07:40:49 0.35,-134.11 -0.43,-137.89 429.35 80
5 09/11/2014 19:09:52 -0.34,-134.09 -1.24,-129.73 494.66 80
6 09/12/2014 07:28:36 0.35,-133.97 0.13,-134.92 109.01 80
7 09/14/2014 07:19:04 0.35,-133.82 0.75,-131.96 210.95 80
8 09/14/2014 19:37:39 -0.36,-133.85 0.36,-137.12 371.31 80
9 09/16/2014 19:25:27 -0.35,-133.70 -0.28,-134.16 51.86 80
10 09/18/2014 19:15:54 -0.35,-133.54 -0.86,-131.19 267.28 80
11 09/19/2014 07:34:38 0.35,-133.42 -0.24,-136.38 336.14 80




NCC Satellite Simultaneous Nadir Overpasses (SNOs) Prediction Service
